Flag for Austria Weather past 2 weeks in Bad Radkersburg, Styria, Austria

Now
66 °F

Mild.


Feels Like: 66 °F
Forecast: 59 / 78 °F
Wind: 1 mph from East

Location: Murska Sobota

Current Time: Jul 30, 2014 at 1:23:20 AM

Latest Report: Jul 30, 2014 at 12:00 AM


Visibility: N/A

Pressure: 29.76 "Hg

Humidity: 90%

Dew point: 64 °F

Location of Bad RadkersburgLocation

Historic Weather in Bad Radkersburg — Graph

°F

Bad Radkersburg temperature yesterday

Maximum temperature yesterday: 80 °F (at 3:00 PM)
Minimum temperature yesterday: 65 °F (at 5:00 AM)
Average temperature yesterday: 71 °F

Past Weeks' High & Low Weather Summary

 TemperatureHumidityPressure
High88 °F (Jul 20, 4:00 PM)100% (Jul 27, 5:00 AM)30.10 "Hg (Jul 27, 5:00 AM)
Low56 °F (Jul 24, 6:00 AM)37% (Jul 17, 2:00 PM)29.73 "Hg (Jul 21, 9:00 AM)
Average72 °F76%29.92 "Hg
* Reported Midnight between Jul 14 and Jul 15 — Midnight between Jul 29 and Jul 30, Bad Radkersburg, Weather by CustomWeather, © 2014

Note: Actual official high and low records may vary slightly from our data, if they occured in-between our weather recording intervals... More about our weather records

Advertising

Bad Radkersburg weather history for previous 24 hours

 ConditionsComfort  
Time TempWeatherWind HumidityBarometerVisibility
12:00 AM
Jul 30
66 °FMild.1 mph90%29.76 "HgN/A
11:00 PM
Jul 29
68 °FMild.2 mph86%29.76 "HgN/A
10:00 PM68 °FMild.2 mph86%29.75 "HgN/A
9:00 PM70 °FMild.1 mph80%29.75 "HgN/A
8:00 PM73 °FPartly sunny.2 mph74%29.74 "Hg6 mi
7:00 PM74 °FMild.2 mph73%29.75 "HgN/A
6:00 PM76 °FMild.3 mph69%29.74 "HgN/A
5:00 PM77 °FWarm.3 mph68%29.75 "HgN/A
4:00 PM79 °FWarm.5 mph61%29.76 "HgN/A
3:00 PM80 °FOvercast.5 mph63%29.75 "Hg6 mi
2:00 PM80 °FOvercast.5 mph63%29.76 "Hg6 mi
1:00 PM79 °FOvercast.2 mph68%29.77 "Hg6 mi
12:00 PM76 °FFog.2 mph73%29.78 "Hg5 mi
11:00 AM73 °FFog.1 mph82%29.79 "Hg2 mi
10:00 AM70 °FFog.1 mph90%29.80 "Hg1 mi
9:00 AM68 °FFog.1 mph96%29.79 "Hg1 mi
8:00 AM66 °FFog.1 mph100%29.79 "Hg1 mi
7:00 AM65 °FFog.2 mph100%29.79 "Hg0 mi
6:00 AM65 °FFog.1 mph100%29.79 "Hg0 mi
5:00 AM65 °FFog.1 mph100%29.79 "Hg0 mi
4:00 AM65 °FMild.1 mph99%29.79 "HgN/A
3:00 AM66 °FMild.No wind100%29.80 "HgN/A
2:00 AM66 °FMild.No wind100%29.81 "HgN/A
1:00 AM66 °FMild.1 mph99%29.81 "HgN/A
Weather by CustomWeather, © 2014

See weather overviewHow to use our weather pages